Flight Track Log - Related Links

Times and Time Zones

All times are in EDT time to prevent confusion due to time zone crossing. See the UPS2592 flight status page for this flight to view local times or setup timezone preferences in your user account.

Time Position Orientation Groundspeed Altitude Reporting Facility
EDT Latitude Longitude Course Direction KTS MPH feet Rate Location/Type
Tue 04:28:34 PM 38.2408 -85.7812 329° Northwest 232 267 3,900  Level FlightAware ADS-B
Tue 04:29:33 PM 38.3002 -85.8181 343° North 233 268 8,000 3,176 Climbing FlightAware ADS-B
Tue 04:30:33 PM 38.3641 -85.8441 342° North 272 313 10,200 1,881 Climbing FlightAware ADS-B
Tue 04:31:31 PM 38.4439 -85.8769 342° North 334 384 11,700 2,262 Climbing FlightAware ADS-B
Tue 04:32:35 PM 38.5389 -85.9162 342° North 346 398 14,800 2,806 Climbing FlightAware ADS-B
Tue 04:33:35 PM 38.6333 -85.9560 334° Northwest 354 407 17,500 2,695 Climbing FlightAware ADS-B
Tue 04:34:33 PM 38.6934 -86.0406 305° West 354 407 20,100 2,471 Climbing FlightAware ADS-B
Tue 04:35:34 PM 38.7498 -86.1431 305° West 360 414 22,400 2,110 Climbing FlightAware ADS-B
Tue 04:36:04 PM 38.7821 -86.2022 305° West 365 420 23,300 3,042 Climbing FlightAware ADS-B
Tue 04:36:45 PM 38.8227 -86.2759 305° West 370 426 26,000 2,189 Climbing FlightAware ADS-B
Tue 04:37:18 PM 38.7944 -86.2246 305° West 374 430 26,000 1,200 Level FlightAware ADS-B
Tue 04:39:45 PM 38.9673 -86.5404 305° West 378 435 29,600 1,359 Climbing FlightAware ADS-B
Tue 04:40:19 PM 39.0253 -86.6469 305° West 377 434 30,100 1,063 Climbing Indianapolis Center
Tue 04:41:21 PM 39.0853 -86.7578 305° West 377 434 31,300 543 Climbing Indianapolis Center
Tue 04:47:30 PM 39.4950 -87.4331 316° Northwest 376 433 34,000 394 Climbing FlightAware ADS-B
Tue 04:48:12 PM 39.5468 -87.4987 315° West 375 432 34,000  Level FlightAware ADS-B
Tue 04:48:42 PM 39.5825 -87.5490 305° West 375 432 34,000  Level FlightAware ADS-B
Tue 04:49:22 PM 39.6208 -87.6243 303° West 374 430 34,000  Level FlightAware ADS-B
Tue 04:49:54 PM 39.6513 -87.6846 303° West 375 432 34,000  Level FlightAware ADS-B
Tue 04:50:25 PM 39.6785 -87.7389 303° West 377 434 34,000  Level FlightAware ADS-B
Tue 04:51:05 PM 39.7187 -87.8186 303° West 378 435 34,000  Level FlightAware ADS-B
Tue 04:51:45 PM 39.7467 -87.8741 303° West 376 433 34,000  Level FlightAware ADS-B
Tue 04:52:24 PM 39.7934 -87.9670 303° West 376 433 34,000  Level FlightAware ADS-B
Tue 04:53:05 PM 39.8326 -88.0453 303° West 376 433 34,000  Level FlightAware ADS-B
Tue 04:53:39 PM 39.8645 -88.1093 303° West 375 432 34,000  Level FlightAware ADS-B
Tue 04:54:14 PM 39.8977 -88.1759 303° West 374 430 34,000  Level FlightAware ADS-B
Tue 04:54:45 PM 39.9253 -88.2316 303° West 373 429 34,000  Level FlightAware ADS-B
Tue 04:55:16 PM 39.9558 -88.2928 303° West 372 428 34,000  Level FlightAware ADS-B
Tue 04:55:57 PM 39.9912 -88.3640 303° West 373 429 34,000  Level FlightAware ADS-B
Tue 04:56:27 PM 40.0220 -88.4261 303° West 371 427 34,000  Level FlightAware ADS-B
Tue 04:56:57 PM 40.0495 -88.4821 303° West 371 427 34,000  Level FlightAware ADS-B
Tue 04:57:36 PM 40.0853 -88.5550 303° West 371 427 34,000  Level FlightAware ADS-B
Tue 04:58:44 PM 40.1481 -88.6827 303° West 369 425 34,000  Level FlightAware ADS-B
Tue 05:00:52 PM 40.2018 -88.8042 298° West 370 426 34,000  Level FlightAware ADS-B
Tue 05:01:38 PM 40.2892 -89.0238 297° West 369 425 34,000  Level FlightAware ADS-B
Tue 05:02:29 PM 40.3299 -89.1266 298° West 371 427 34,000  Level FlightAware ADS-B
Tue 05:03:36 PM 40.3412 -89.1546 298° West 375 432 34,000  Level FlightAware ADS-B
Tue 05:04:14 PM 40.3951 -89.2897 297° West 376 433 34,000  Level FlightAware ADS-B
Tue 05:05:38 PM 40.4786 -89.4993 305° West 363 418 34,000  Level FlightAware ADS-B
Tue 05:07:58 PM 40.3951 -89.2897 299° West 362 417 34,000  Level FlightAware ADS-B
Tue 05:09:17 PM 40.5196 -89.5651 297° West 360 414 34,000  Level FlightAware ADS-B
Tue 05:11:18 PM 40.7643 -90.1438 297° West 353 406 34,000  Level FlightAware ADS-B
Tue 05:11:57 PM 40.7878 -90.2056 297° West 356 410 34,000  Level Chicago Center
Tue 05:12:59 PM 40.8328 -90.3247 297° West 352 405 34,000  Level Chicago Center
Tue 05:14:01 PM 40.8758 -90.4378 297° West 347 399 34,000  Level Chicago Center
Tue 05:15:03 PM 40.9181 -90.5489 297° West 341 392 34,000  Level Chicago Center
Tue 05:16:05 PM 40.9597 -90.6589 297° West 339 390 34,000  Level Chicago Center
Tue 05:17:07 PM 41.0019 -90.7708 297° West 339 390 34,000  Level Chicago Center
Tue 05:18:09 PM 41.0519 -90.9047 296° West 339 390 34,000  Level Chicago Center
Tue 05:19:11 PM 41.0936 -91.0167 296° West 339 390 34,000  Level Chicago Center
Tue 05:26:12 PM 41.3895 -91.8233 296° West 345 397 34,000  Level FlightAware ADS-B (LPVM)
Tue 05:26:53 PM 41.4176 -91.9013 296° West 345 397 34,000  Level FlightAware ADS-B (LPVM)
Tue 05:27:40 PM 41.4502 -91.9915 296° West 348 400 34,000  Level FlightAware ADS-B (LPVM)
Tue 05:28:32 PM 41.4860 -92.0910 296° West 350 403 34,000  Level FlightAware ADS-B (LPVM)
Tue 05:29:09 PM 41.5118 -92.1632 295° West 351 404 34,000  Level FlightAware ADS-B (LPVM)
Tue 05:29:41 PM 41.5341 -92.2258 295° West 350 403 34,000  Level FlightAware ADS-B (LPVM)
Tue 05:30:23 PM 41.5630 -92.3070 296° West 349 402 34,000  Level FlightAware ADS-B (LPVM)
Tue 05:30:53 PM 41.5828 -92.3630 295° West 347 399 34,000  Level FlightAware ADS-B (LPVM)
Tue 05:32:43 PM 41.6578 -92.5750 295° West 350 403 34,000  Level FlightAware ADS-B (LPVM)
Tue 05:33:20 PM 41.6848 -92.6515 295° West 351 404 34,000  Level FlightAware ADS-B (LPVM)
Tue 05:34:02 PM 41.7121 -92.7296 295° West 351 404 34,000  Level FlightAware ADS-B (LPVM)
Tue 05:34:33 PM 41.7352 -92.7954 295° West 351 404 34,000  Level FlightAware ADS-B (LPVM)
Tue 05:35:53 PM 41.7896 -92.9517 295° West 352 405 34,000  Level FlightAware ADS-B (LPVM)
Tue 05:37:21 PM 41.8505 -93.1271 295° West 352 405 34,000  Level FlightAware ADS-B (LPVM)
Tue 05:37:51 PM 41.8704 -93.1848 295° West 351 404 34,000  Level FlightAware ADS-B (LPVM)
Tue 05:38:35 PM 41.9007 -93.2729 295° West 349 402 34,000  Level FlightAware ADS-B (LPVM)
Tue 05:43:59 PM 42.1138 -93.9003 294° West 353 406 34,000  Level FlightAware ADS-B
Tue 05:45:03 PM 42.1603 -94.0398 294° West 355 409 34,000  Level FlightAware ADS-B
Tue 05:45:42 PM 42.1888 -94.1246 294° West 356 410 34,000  Level FlightAware ADS-B
Tue 05:46:18 PM 42.2118 -94.1938 294° West 357 411 34,000  Level FlightAware ADS-B
Tue 05:47:02 PM 42.2429 -94.2879 294° West 357 411 34,000  Level FlightAware ADS-B
Tue 05:47:47 PM 42.2731 -94.3793 294° West 357 411 34,000  Level FlightAware ADS-B
Tue 05:48:17 PM 42.2933 -94.4403 294° West 357 411 34,000  Level FlightAware ADS-B
Tue 05:49:03 PM 42.3236 -94.5327 294° West 357 411 34,000  Level FlightAware ADS-B
Tue 05:49:48 PM 42.3529 -94.6226 294° West 356 410 34,000  Level FlightAware ADS-B
Tue 05:50:23 PM 42.3696 -94.6732 294° West 356 410 34,000  Level FlightAware ADS-B
Tue 05:50:55 PM 42.3983 -94.7615 294° West 356 410 34,000  Level FlightAware ADS-B (LPVM)
Tue 05:51:31 PM 42.4038 -94.7784 294° West 357 411 34,000  Level FlightAware ADS-B (LPVM)
Tue 05:52:02 PM 42.4236 -94.8395 294° West 357 411 34,000  Level FlightAware ADS-B (LPVM)
Tue 05:53:12 PM 42.4888 -95.0412 294° West 359 413 34,000  Level FlightAware ADS-B (LPVM)
Tue 05:53:43 PM 42.5080 -95.1010 294° West 360 414 34,000  Level FlightAware ADS-B (LPVM)
Tue 05:54:14 PM 42.5134 -95.1178 293° West 359 413 34,000  Level FlightAware ADS-B (LPVM)
Tue 05:55:06 PM 42.5639 -95.2761 293° West 359 413 34,000  Level FlightAware ADS-B (LPVM)
Tue 05:58:25 PM 42.6927 -95.6837 293° West 355 409 34,000  Level FlightAware ADS-B (LPVM)
Tue 05:59:27 PM 42.7256 -95.7889 293° West 355 409 34,000  Level Minneapolis Center
Tue 06:00:29 PM 42.7642 -95.9125 293° West 355 409 34,000  Level Minneapolis Center
Tue 06:01:31 PM 42.8103 -96.0614 293° West 356 410 34,000  Level Minneapolis Center
Tue 06:02:32 PM 42.8486 -96.1856 293° West 356 410 34,000  Level Minneapolis Center
Tue 06:03:34 PM 42.8867 -96.3097 293° West 356 410 34,000  Level Minneapolis Center
Tue 06:04:36 PM 42.9250 -96.4347 293° West 356 410 34,000  Level Minneapolis Center
Tue 06:05:38 PM 42.9631 -96.5603 293° West 357 411 34,000  Level Minneapolis Center
Tue 06:06:40 PM 43.0019 -96.6886 293° West 358 412 34,000  Level Minneapolis Center
Tue 06:07:42 PM 43.0389 -96.8117 292° West 358 412 34,000  Level Minneapolis Center
Tue 06:08:43 PM 43.0844 -96.9631 292° West 358 412 34,000  Level Minneapolis Center
Tue 06:09:45 PM 43.1219 -97.0900 292° West 359 413 34,000  Level Minneapolis Center
Tue 06:10:47 PM 43.1597 -97.2169 292° West 359 413 34,000  Level Minneapolis Center
Tue 06:11:49 PM 43.1972 -97.3436 292° West 359 413 34,000  Level Minneapolis Center
Tue 06:12:51 PM 43.2344 -97.4711 292° West 360 414 34,000  Level Minneapolis Center
Tue 06:13:52 PM 43.2717 -97.5989 292° West 360 414 34,000  Level Minneapolis Center
Tue 06:14:54 PM 43.3092 -97.7275 292° West 361 415 34,000  Level Minneapolis Center
Tue 06:15:56 PM 43.3464 -97.8567 292° West 362 417 34,000  Level Minneapolis Center
Tue 06:16:58 PM 43.3911 -98.0119 292° West 363 418 34,000  Level Minneapolis Center
Tue 06:18:00 PM 43.4281 -98.1417 291° West 364 419 34,000  Level Minneapolis Center
Tue 06:19:02 PM 43.4650 -98.2714 291° West 364 419 34,000  Level Minneapolis Center
Tue 06:20:03 PM 43.5017 -98.4017 291° West 365 420 34,000  Level Minneapolis Center
Tue 06:21:05 PM 43.5386 -98.5328 291° West 366 421 34,000  Level Minneapolis Center
Tue 06:22:07 PM 43.5806 -98.6825 291° West 367 422 34,000  Level Minneapolis Center
Tue 06:23:09 PM 43.6172 -98.8147 291° West 367 422 34,000  Level Minneapolis Center
Tue 06:24:11 PM 43.6539 -98.9464 291° West 368 423 34,000  Level Minneapolis Center
Tue 06:25:13 PM 43.6900 -99.0789 291° West 368 423 34,000  Level Minneapolis Center
Tue 06:26:15 PM 43.7275 -99.2150 291° West 370 426 34,000  Level Minneapolis Center
Tue 06:27:17 PM 43.7631 -99.3456 291° West 370 426 34,000  Level Minneapolis Center
Tue 06:28:19 PM 43.8064 -99.5061 291° West 371 427 34,000  Level Minneapolis Center
Tue 06:29:21 PM 43.8428 -99.6406 291° West 372 428 34,000  Level Minneapolis Center
Tue 06:30:23 PM 43.8786 -99.7753 290° West 372 428 34,000  Level Minneapolis Center
Tue 06:31:25 PM 43.9144 -99.9103 290° West 373 429 34,000  Level Minneapolis Center
Tue 06:32:27 PM 43.9503 -100.0458 290° West 373 429 34,000  Level Minneapolis Center
Tue 06:33:29 PM 43.9861 -100.1817 290° West 374 430 34,000  Level Minneapolis Center
Tue 06:34:31 PM 44.0289 -100.3450 290° West 374 430 34,000  Level Minneapolis Center
Tue 06:35:33 PM 44.0650 -100.4844 290° West 375 432 34,000  Level Minneapolis Center
Tue 06:36:35 PM 44.0994 -100.6181 290° West 375 432 34,000  Level Minneapolis Center
Tue 06:37:37 PM 44.1344 -100.7550 290° West 375 432 34,000  Level Minneapolis Center
Tue 06:38:40 PM 44.1697 -100.8931 290° West 376 433 34,000  Level Minneapolis Center
Tue 06:39:42 PM 44.2050 -101.0317 290° West 378 435 34,000  Level Minneapolis Center
Tue 06:40:44 PM 44.2400 -101.1703 289° West 378 435 34,000  Level Minneapolis Center
Tue 06:41:46 PM 44.2817 -101.3369 289° West 379 436 34,000  Level Minneapolis Center
Tue 06:42:48 PM 44.3167 -101.4775 289° West 381 438 34,000  Level Minneapolis Center
Tue 06:43:50 PM 44.3511 -101.6175 289° West 381 438 34,000  Level Minneapolis Center
Tue 06:44:52 PM 44.3861 -101.7581 289° West 382 440 34,000  Level Minneapolis Center
Tue 06:45:54 PM 44.4203 -101.8989 289° West 382 440 34,000  Level Minneapolis Center
Tue 06:46:56 PM 44.4542 -102.0394 289° West 382 440 34,000  Level Minneapolis Center
Tue 06:47:58 PM 44.4953 -102.2086 289° West 383 441 34,000  Level Minneapolis Center
Tue 06:49:00 PM 44.5292 -102.3508 289° West 384 442 34,000  Level Minneapolis Center
Tue 06:50:02 PM 44.5631 -102.4928 289° West 384 442 34,000  Level Minneapolis Center
Tue 06:51:04 PM 44.5967 -102.6344 288° West 384 442 34,000  Level Minneapolis Center
Tue 06:52:06 PM 44.6297 -102.7758 288° West 383 441 34,000  Level Minneapolis Center
Tue 06:53:09 PM 44.6631 -102.9181 288° West 384 442 34,000  Level Minneapolis Center
Tue 06:54:11 PM 44.7025 -103.0892 288° West 384 442 34,000  Level Minneapolis Center
Tue 06:55:13 PM 44.7353 -103.2314 288° West 384 442 34,000  Level Minneapolis Center
Tue 06:56:15 PM 44.7681 -103.3750 288° West 385 443 34,000  Level Minneapolis Center
Tue 06:57:17 PM 44.8008 -103.5192 288° West 386 444 34,000  Level Minneapolis Center
Tue 06:58:13 PM 44.8347 -103.6675 288° West 386 444 34,000  Level Salt Lake Center
Tue 06:59:14 PM 44.8669 -103.8069 288° West 387 445 34,000  Level Salt Lake Center
Tue 07:00:16 PM 44.8981 -103.9469 287° West 389 448 34,000  Level Salt Lake Center
Tue 07:01:17 PM 44.9336 -104.1114 287° West 390 449 34,000  Level Salt Lake Center
Tue 07:02:19 PM 44.9658 -104.2533 288° West 392 451 34,000  Level Salt Lake Center
Tue 07:03:20 PM 45.0014 -104.4164 287° West 392 451 34,000  Level Salt Lake Center
Tue 07:04:21 PM 45.0314 -104.5603 286° West 394 453 34,000  Level Salt Lake Center
Tue 07:05:23 PM 45.0639 -104.7075 287° West 396 456 34,000  Level Salt Lake Center
Tue 07:06:25 PM 45.0953 -104.8569 287° West 397 457 34,000  Level Salt Lake Center
Tue 07:07:27 PM 45.1267 -105.0047 287° West 396 456 34,000  Level Salt Lake Center
Tue 07:08:28 PM 45.1647 -105.1828 287° West 396 456 34,000  Level Salt Lake Center
Tue 07:09:29 PM 45.1947 -105.3331 286° West 396 456 34,000  Level Salt Lake Center
Tue 07:10:31 PM 45.2261 -105.4833 287° West 397 457 34,000  Level Salt Lake Center
Tue 07:11:32 PM 45.2572 -105.6339 286° West 398 458 34,000  Level Salt Lake Center
Tue 07:12:34 PM 45.2875 -105.7842 286° West 399 459 34,000  Level Salt Lake Center
Tue 07:13:35 PM 45.3172 -105.9319 286° West 397 457 34,000  Level Salt Lake Center
Tue 07:14:37 PM 45.3467 -106.0803 286° West 395 455 34,000  Level Salt Lake Center
Tue 07:15:39 PM 45.3833 -106.2592 286° West 395 455 34,000  Level Salt Lake Center
Tue 07:16:40 PM 45.4125 -106.4094 286° West 395 455 34,000  Level Salt Lake Center
Tue 07:17:42 PM 45.4408 -106.5589 285° West 395 455 34,000  Level Salt Lake Center
Tue 07:18:43 PM 45.4714 -106.7092 286° West 395 455 34,000 -1,366 Level Salt Lake Center
Tue 07:19:45 PM 45.4989 -106.8594 285° West 395 455 31,200 -2,613 Descending Salt Lake Center
Tue 07:20:47 PM 45.5269 -107.0119 285° West 396 456 28,600 -2,634 Descending Salt Lake Center
Tue 07:21:48 PM 45.5575 -107.1636 286° West 399 459 25,800 -2,927 Descending Salt Lake Center
Tue 07:22:50 PM 45.5897 -107.3353 285° West 371 427 22,600 -2,976 Descending Salt Lake Center
Tue 07:23:51 PM 45.6153 -107.4725 285° West 363 418 19,700 -2,780 Descending Salt Lake Center
Tue 07:24:53 PM 45.6408 -107.6106 285° West 352 405 16,900 -1,902 Descending Salt Lake Center
Tue 07:25:54 PM 45.6689 -107.7344 288° West 338 389 15,800 -1,854 Descending Salt Lake Center
Tue 07:26:56 PM 45.7153 -107.8597 298° West 336 387 13,100 -2,195 Descending Salt Lake Center
Tue 07:27:57 PM 45.7569 -107.9728 298° West 328 377 11,300 -1,463 Descending Salt Lake Center
Tue 07:28:59 PM 45.8036 -108.0936 299° West 325 374 10,100 -823 Descending Salt Lake Center
Tue 07:30:01 PM 45.8358 -108.1931 295° West 279 321 9,600 -1,073 Descending Salt Lake Center
Tue 07:31:02 PM 45.8653 -108.2875 294° West 266 306 7,900 -1,659 Descending Salt Lake Center
Tue 07:32:04 PM 45.8997 -108.3897 296° West 266 306 6,200 -1,024 Descending Salt Lake Center
Tue 07:33:05 PM 45.9206 -108.4753 289° West 224 258 5,800 -341 Descending Salt Lake Center
Tue 07:34:07 PM 45.9197 -108.5528 269° West 181 208 5,500 -145 Descending Salt Lake Center
Tue 07:35:09 PM 45.9167 -108.6208 266° West 178 205 5,500  Level Salt Lake Center
Tue 07:36:10 PM 45.8797 -108.6667 221° Southwest 168 193 5,500 -244 Level Salt Lake Center
Tue 07:37:12 PM 45.8408 -108.6517 165° South 142 163 5,000 -585 Descending Salt Lake Center
Tue 07:38:13 PM 45.8250 -108.5983 113° Southeast 137 158 4,300 -683 Descending Salt Lake Center
Tue 07:39:15 PM 45.8111 -108.5489 112° Southeast 136 157 3,600 -677 Descending Salt Lake Center

Login

Don't have an account? Register now (free) for customized features, flight alerts, and more!